Time,TemperatureF,DewpointF,PressureIn,WindDirection,WindDirectionDegrees,WindSpeedMPH,WindSpeedGustMPH,Humidity,HourlyPrecipIn,Conditions,Clouds,dailyrainin,SoftwareType,DateUTC
2013-08-30 00:02:00,60.5,60.0,30.02,NW,321,0.0,0.0,99,0.00,,,0.00,weatherlink.com 1.10,2013-08-30 04:02:00,
2013-08-30 00:19:00,60.5,60.0,30.01,NW,320,0.0,0.0,99,0.00,,,0.00,weatherlink.com 1.10,2013-08-30 04:19:00,
2013-08-30 00:35:00,60.4,60.0,30.02,NW,308,1.0,3.0,99,0.00,,,0.00,weatherlink.com 1.10,2013-08-30 04:35:00,
2013-08-30 00:51:00,60.1,60.0,30.01,West,280,0.0,2.0,99,0.00,,,0.00,weatherlink.com 1.10,2013-08-30 04:51:00,
2013-08-30 01:07:00,60.0,60.0,30.00,SW,224,3.0,5.0,99,0.00,,,0.00,weatherlink.com 1.10,2013-08-30 05:07:00,
2013-08-30 01:24:00,59.9,60.0,30.00,NW,315,2.0,4.0,99,0.00,,,0.00,weatherlink.com 1.10,2013-08-30 05:24:00,
2013-08-30 01:40:00,60.0,60.0,30.00,NW,308,0.0,1.0,99,0.00,,,0.00,weatherlink.com 1.10,2013-08-30 05:40:00,
2013-08-30 01:56:00,60.1,60.0,29.99,West,272,0.0,1.0,99,0.00,,,0.00,weatherlink.com 1.10,2013-08-30 05:56:00,
2013-08-30 02:12:00,60.0,60.0,29.98,WNW,298,0.0,1.0,99,0.00,,,0.00,weatherlink.com 1.10,2013-08-30 06:12:00,
2013-08-30 02:29:00,60.1,60.0,29.98,WNW,296,0.0,1.0,99,0.00,,,0.00,weatherlink.com 1.10,2013-08-30 06:29:00,
2013-08-30 02:45:00,60.3,60.0,29.98,NW,305,0.0,2.0,99,0.00,,,0.00,weatherlink.com 1.10,2013-08-30 06:45:00,
2013-08-30 03:02:00,60.5,60.0,29.97,NNW,329,0.0,1.0,99,0.00,,,0.00,weatherlink.com 1.10,2013-08-30 07:02:00,
2013-08-30 03:18:00,60.3,60.0,29.96,NNE,21,1.0,2.0,99,0.00,,,0.00,weatherlink.com 1.10,2013-08-30 07:18:00,
2013-08-30 03:34:00,60.0,60.0,29.96,North,2,1.0,2.0,99,0.00,,,0.00,weatherlink.com 1.10,2013-08-30 07:34:00,
2013-08-30 03:50:00,60.4,60.0,29.95,WNW,302,0.0,4.0,100,0.00,,,0.00,weatherlink.com 1.10,2013-08-30 07:50:00,
2013-08-30 04:07:00,60.6,60.0,29.95,West,277,0.0,9.0,99,0.00,,,0.00,weatherlink.com 1.10,2013-08-30 08:07:00,
2013-08-30 04:23:00,60.9,61.0,29.95,WSW,256,1.0,10.0,100,0.00,,,0.00,weatherlink.com 1.10,2013-08-30 08:23:00,
2013-08-30 04:39:00,61.1,61.0,29.95,SW,224,3.0,9.0,99,0.00,,,0.00,weatherlink.com 1.10,2013-08-30 08:39:00,
2013-08-30 04:55:00,61.3,61.0,29.95,NW,324,2.0,5.0,99,0.00,,,0.00,weatherlink.com 1.10,2013-08-30 08:55:00,
2013-08-30 05:11:00,61.5,61.0,29.95,SW,231,1.0,5.0,99,0.00,,,0.00,weatherlink.com 1.10,2013-08-30 09:11:00,
2013-08-30 05:28:00,61.6,61.0,29.94,NW,309,0.0,4.0,99,0.00,,,0.00,weatherlink.com 1.10,2013-08-30 09:28:00,
2013-08-30 05:44:00,62.0,62.0,29.95,NW,313,0.0,6.0,99,0.00,,,0.00,weatherlink.com 1.10,2013-08-30 09:44:00,
2013-08-30 06:00:00,62.4,62.0,29.95,WNW,293,0.0,7.0,98,0.00,,,0.00,weatherlink.com 1.10,2013-08-30 10:00:00,
2013-08-30 06:16:00,62.8,62.0,29.94,WSW,244,1.0,9.0,98,0.00,,,0.00,weatherlink.com 1.10,2013-08-30 10:16:00,
2013-08-30 06:34:00,62.9,62.0,29.95,South,187,4.0,9.0,97,0.00,,,0.00,weatherlink.com 1.10,2013-08-30 10:34:00,
2013-08-30 06:50:00,62.6,62.0,29.95,WNW,298,4.0,8.0,97,0.00,,,0.00,weatherlink.com 1.10,2013-08-30 10:50:00,
2013-08-30 07:06:00,62.9,62.0,29.95,SW,230,2.0,7.0,97,0.00,,,0.00,weatherlink.com 1.10,2013-08-30 11:06:00,
2013-08-30 07:22:00,63.0,62.0,29.95,WNW,288,1.0,6.0,97,0.00,,,0.00,weatherlink.com 1.10,2013-08-30 11:22:00,
2013-08-30 07:39:00,63.2,62.0,29.95,West,270,0.0,8.0,96,0.00,,,0.00,weatherlink.com 1.10,2013-08-30 11:39:00,
2013-08-30 07:55:00,63.6,62.0,29.95,WSW,255,1.0,9.0,96,0.00,,,0.00,weatherlink.com 1.10,2013-08-30 11:55:00,
2013-08-30 08:11:00,63.5,62.0,29.95,West,264,1.0,6.0,96,0.00,,,0.00,weatherlink.com 1.10,2013-08-30 12:11:00,
2013-08-30 08:27:00,63.5,62.0,29.94,WSW,257,2.0,5.0,95,0.00,,,0.00,weatherlink.com 1.10,2013-08-30 12:27:00,
2013-08-30 08:44:00,64.2,63.0,29.95,NNW,341,3.0,8.0,95,0.00,,,0.00,weatherlink.com 1.10,2013-08-30 12:44:00,
2013-08-30 09:00:00,64.7,63.0,29.95,WNW,289,3.0,13.0,94,0.00,,,0.00,weatherlink.com 1.10,2013-08-30 13:00:00,
2013-08-30 09:16:00,65.0,63.0,29.95,West,278,0.0,6.0,94,0.00,,,0.00,weatherlink.com 1.10,2013-08-30 13:16:00,
2013-08-30 09:32:00,65.8,64.0,29.94,NNE,25,2.0,8.0,93,0.00,,,0.00,weatherlink.com 1.10,2013-08-30 13:32:00,
2013-08-30 09:48:00,66.8,64.0,29.94,West,265,1.0,8.0,90,0.00,,,0.00,weatherlink.com 1.10,2013-08-30 13:48:00,
2013-08-30 10:05:00,67.7,65.0,29.93,WNW,298,2.0,6.0,90,0.00,,,0.00,weatherlink.com 1.10,2013-08-30 14:05:00,
2013-08-30 10:21:00,68.6,65.0,29.93,West,260,3.0,8.0,88,0.00,,,0.00,weatherlink.com 1.10,2013-08-30 14:21:00,
2013-08-30 10:37:00,69.2,64.0,29.93,WSW,253,7.0,7.0,85,0.00,,,0.00,weatherlink.com 1.10,2013-08-30 14:37:00,
2013-08-30 10:53:00,70.2,65.0,29.93,WNW,293,1.0,6.0,83,0.00,,,0.00,weatherlink.com 1.10,2013-08-30 14:53:00,
2013-08-30 11:10:00,71.0,65.0,29.92,West,267,0.0,8.0,82,0.00,,,0.00,weatherlink.com 1.10,2013-08-30 15:10:00,
2013-08-30 11:26:00,72.0,66.0,29.92,NW,315,1.0,6.0,81,0.00,,,0.00,weatherlink.com 1.10,2013-08-30 15:26:00,
2013-08-30 11:42:00,72.8,66.0,29.91,WNW,301,1.0,7.0,78,0.00,,,0.00,weatherlink.com 1.10,2013-08-30 15:42:00,
2013-08-30 11:58:00,73.4,65.0,29.91,NW,315,0.0,7.0,76,0.00,,,0.00,weatherlink.com 1.10,2013-08-30 15:58:00,
2013-08-30 12:15:00,74.1,66.0,29.90,NNW,343,4.0,7.0,75,0.00,,,0.00,weatherlink.com 1.10,2013-08-30 16:15:00,
2013-08-30 12:31:00,74.8,64.0,29.89,NNE,31,2.0,5.0,70,0.00,,,0.00,weatherlink.com 1.10,2013-08-30 16:31:00,
2013-08-30 12:47:00,75.5,65.0,29.89,SW,225,5.0,6.0,69,0.00,,,0.00,weatherlink.com 1.10,2013-08-30 16:47:00,
2013-08-30 13:03:00,76.8,66.0,29.88,West,273,0.0,4.0,69,0.00,,,0.00,weatherlink.com 1.10,2013-08-30 17:03:00,
2013-08-30 13:20:00,76.8,65.0,29.88,NNW,347,3.0,11.0,68,0.00,,,0.00,weatherlink.com 1.10,2013-08-30 17:20:00,
2013-08-30 13:36:00,77.3,67.0,29.88,WNW,289,2.0,7.0,70,0.00,,,0.00,weatherlink.com 1.10,2013-08-30 17:36:00,
2013-08-30 13:52:00,77.7,65.0,29.87,NW,320,0.0,5.0,66,0.00,,,0.00,weatherlink.com 1.10,2013-08-30 17:52:00,
2013-08-30 14:09:00,78.6,67.0,29.86,South,189,3.0,7.0,67,0.00,,,0.00,weatherlink.com 1.10,2013-08-30 18:09:00,
2013-08-30 14:25:00,79.0,66.0,29.85,NNE,14,5.0,6.0,65,0.00,,,0.00,weatherlink.com 1.10,2013-08-30 18:25:00,
2013-08-30 14:41:00,79.4,67.0,29.85,NNW,346,1.0,11.0,65,0.00,,,0.00,weatherlink.com 1.10,2013-08-30 18:41:00,
2013-08-30 14:57:00,79.7,67.0,29.84,WSW,256,2.0,7.0,65,0.00,,,0.00,weatherlink.com 1.10,2013-08-30 18:57:00,
2013-08-30 15:14:00,80.5,66.0,29.84,NW,308,5.0,7.0,62,0.00,,,0.00,weatherlink.com 1.10,2013-08-30 19:14:00,
2013-08-30 15:30:00,80.2,66.0,29.83,West,275,6.0,8.0,61,0.00,,,0.00,weatherlink.com 1.10,2013-08-30 19:30:00,
2013-08-30 15:46:00,80.3,66.0,29.83,NW,324,3.0,10.0,61,0.00,,,0.00,weatherlink.com 1.10,2013-08-30 19:46:00,
2013-08-30 16:02:00,80.6,67.0,29.83,West,280,1.0,11.0,63,0.00,,,0.00,weatherlink.com 1.10,2013-08-30 20:02:00,
2013-08-30 16:20:00,80.7,66.0,29.83,NNW,343,2.0,11.0,62,0.00,,,0.00,weatherlink.com 1.10,2013-08-30 20:20:00,
2013-08-30 16:36:00,80.8,67.0,29.82,West,271,2.0,7.0,62,0.00,,,0.00,weatherlink.com 1.10,2013-08-30 20:36:00,
2013-08-30 16:52:00,81.0,65.0,29.82,NW,312,4.0,6.0,59,0.00,,,0.00,weatherlink.com 1.10,2013-08-30 20:52:00,
2013-08-30 17:08:00,80.8,67.0,29.82,NW,323,0.0,8.0,63,0.00,,,0.00,weatherlink.com 1.10,2013-08-30 21:08:00,
2013-08-30 17:25:00,80.0,66.0,29.82,WNW,282,2.0,8.0,62,0.00,,,0.00,weatherlink.com 1.10,2013-08-30 21:25:00,
2013-08-30 17:41:00,79.8,67.0,29.82,WSW,249,3.0,9.0,64,0.00,,,0.00,weatherlink.com 1.10,2013-08-30 21:41:00,
2013-08-30 17:57:00,79.6,66.0,29.81,WNW,291,0.0,5.0,64,0.00,,,0.00,weatherlink.com 1.10,2013-08-30 21:57:00,
2013-08-30 18:13:00,79.5,67.0,29.81,West,263,0.0,3.0,66,0.00,,,0.00,weatherlink.com 1.10,2013-08-30 22:13:00,
2013-08-30 18:29:00,79.4,67.0,29.81,WSW,256,2.0,6.0,66,0.00,,,0.00,weatherlink.com 1.10,2013-08-30 22:29:00,
2013-08-30 18:46:00,78.5,67.0,29.81,WSW,247,0.0,4.0,69,0.00,,,0.00,weatherlink.com 1.10,2013-08-30 22:46:00,
2013-08-30 19:02:00,77.3,67.0,29.81,SW,233,3.0,3.0,71,0.00,,,0.00,weatherlink.com 1.10,2013-08-30 23:02:00,
2013-08-30 19:18:00,75.4,66.0,29.81,WSW,239,5.0,5.0,73,0.00,,,0.00,weatherlink.com 1.10,2013-08-30 23:18:00,
2013-08-30 19:35:00,74.5,66.0,29.81,WSW,252,4.0,10.0,74,0.00,,,0.00,weatherlink.com 1.10,2013-08-30 23:35:00,
2013-08-30 19:51:00,74.3,65.0,29.81,SW,233,3.0,8.0,74,0.00,,,0.00,weatherlink.com 1.10,2013-08-30 23:51:00,
2013-08-30 20:07:00,74.2,65.0,29.81,WSW,254,1.0,6.0,74,0.00,,,0.00,weatherlink.com 1.10,2013-08-31 00:07:00,
2013-08-30 20:23:00,73.9,65.0,29.81,WSW,246,1.0,5.0,74,0.00,,,0.00,weatherlink.com 1.10,2013-08-31 00:23:00,
2013-08-30 20:40:00,73.7,65.0,29.81,WNW,289,0.0,7.0,75,0.00,,,0.00,weatherlink.com 1.10,2013-08-31 00:40:00,
2013-08-30 20:57:00,73.5,65.0,29.81,SW,223,4.0,10.0,76,0.00,,,0.00,weatherlink.com 1.10,2013-08-31 00:57:00,
2013-08-30 21:13:00,73.8,65.0,29.81,WSW,253,4.0,12.0,75,0.00,,,0.00,weatherlink.com 1.10,2013-08-31 01:13:00,
2013-08-30 21:29:00,73.8,65.0,29.80,WSW,258,2.0,8.0,75,0.00,,,0.00,weatherlink.com 1.10,2013-08-31 01:29:00,
2013-08-30 21:45:00,73.6,66.0,29.80,West,262,6.0,11.0,76,0.00,,,0.00,weatherlink.com 1.10,2013-08-31 01:45:00,
2013-08-30 22:02:00,73.9,65.0,29.80,SW,224,9.0,12.0,75,0.00,,,0.00,weatherlink.com 1.10,2013-08-31 02:02:00,
2013-08-30 22:18:00,74.1,66.0,29.80,SW,230,4.0,16.0,75,0.00,,,0.00,weatherlink.com 1.10,2013-08-31 02:18:00,
2013-08-30 22:34:00,73.8,66.0,29.80,SW,231,17.0,17.0,76,0.00,,,0.00,weatherlink.com 1.10,2013-08-31 02:34:00,
2013-08-30 22:50:00,73.9,66.0,29.80,WSW,242,12.0,16.0,76,0.00,,,0.00,weatherlink.com 1.10,2013-08-31 02:50:00,
2013-08-30 23:07:00,73.9,66.0,29.80,West,279,3.0,15.0,77,0.00,,,0.00,weatherlink.com 1.10,2013-08-31 03:07:00,
2013-08-30 23:23:00,73.7,66.0,29.80,West,264,5.0,13.0,78,0.00,,,0.00,weatherlink.com 1.10,2013-08-31 03:23:00,
2013-08-30 23:39:00,73.7,66.0,29.79,SW,231,5.0,14.0,78,0.00,,,0.00,weatherlink.com 1.10,2013-08-31 03:39:00,
2013-08-30 23:55:00,73.0,66.0,29.79,SW,228,6.0,14.0,80,0.00,,,0.00,weatherlink.com 1.10,2013-08-31 03:55:00,